Location: Schommer Observatory
(40.5200°N, 74.4500°W)
Time: 21:24:25
(UTC-05:00)

OTV 5 (USA 277) - Pass Details

Date: 09 October 2017
Orbit: 404 x 417 km, 43.0° (Epoch: 07 September)

Event Time Altitude Azimuth Distance (km) Brightness Sun altitude
Rises 20:33:47 0° 247° (WSW) 2,348 ? -24.9°
Reaches altitude 10° 20:35:53 10° 246° (WSW) 1,486 ? -25.3°
Enters shadow 20:37:20 24° 244° (WSW) 918 ? -25.5°
